{"data":{"norad_id":82873,"intl_designator":"","name":"UNKNOWN","alt_names":[],"object_type":"UNKNOWN","status":"UNKNOWN","operator":null,"country":null,"launch_date":null,"launch_site_code":null,"launch_vehicle":null,"mission":null,"orbit_class":"UNKNOWN","rcs_meters":null,"size_class":null,"mass_kg":null,"dimensions":null,"purposes":[],"wikipedia_slug":null,"has_3d_model":false,"image_url":null,"decayed_at":null,"tle_current":{"epoch":"2026-05-23T17:24:24.071040Z","epoch_age_seconds":195565,"freshness":"STALE","line1":"1 82873U          26143.72527860  .00001729  00000+0  74816-3 0  9998","line2":"2 82873  99.9945  65.1954 0036575 190.8624 169.1765 14.25606113644302","mean_motion":14.25606113,"eccentricity":0.0036575,"inclination_deg":99.9945,"raan_deg":65.1954,"arg_perigee_deg":190.8624,"mean_anomaly_deg":169.1765,"bstar":0.00074816,"rev_number":64430,"period_min":101.00966787872,"perigee_km":780.17787643918,"apogee_km":832.73317074928,"semimajor_km":7184.5925235942,"source":"CELESTRAK","updated_at":"2026-05-25T13:38:11.196553Z"}}}